Regional Weather Roundup
Issued by NWS Jackson, KY

Home | Current Version | Previous Version | Text Only | Print | Product List | Glossary On
Versions: 1 2 3 4 5 6 7 8 9 10 11 12 13 14 15 16 17 18 19 20 21 22 23 24 25 26 27 28 29 30 31 32 33 34 35 36 37 38 39 40 41 42 43 44 45 46 47 48 49 50
000
ASUS43 KJKL 062310
RWRJKL

EAST KENTUCKY HOURLY WEATHER ROUNDUP
NATIONAL WEATHER SERVICE JACKSON KY
600 PM EST SAT FEB 06 2016

NOTE: "FAIR" INDICATES FEW OR NO CLOUDS BELOW 12,000 FEET WITH
NO SIGNIFICANT WEATHER AND/OR OBSTRUCTIONS TO VISIBILITY.

* THESE REPORTS ARE NOT UNDER NWS QUALITY CONTROL AND MAY NOT
  REPORT WEATHER SUCH AS PRECIPITATION AND FOG.

KYZ079-080-083-085-087-088-110-112-115-119-120-070000
...EASTERN KENTUCKY...

CITY           SKY/WX    TMP DP  RH WIND       PRES   REMARKS
JACKSON        MOCLDY    45  21  38 SW3       30.25S
LONDON         PTCLDY    44  20  38 W6        30.27S
SOMERSET*      CLEAR     45  21  39 SW3       30.29S
MONTICELLO*    PTCLDY    42  23  46 VRB3      30.30S
WILLIAMSBURG*  PTCLDY    45  19  36 CALM      30.28S
MIDDLESBORO*   PTCLDY    43  21  41 S3        30.29S
HARLAN APT*    MOCLDY    43  19  39 CALM      30.27S
BIG SANDY*     CLOUDY    46  21  37 CALM      30.25R
MOREHEAD APT*  CLOUDY    45  23  42 NW6       30.27S
$$

KYZ035-036-041-042-044-050-067-078-099-070000
...CENTRAL KENTUCKY...

CITY           SKY/WX    TMP DP  RH WIND       PRES   REMARKS
MT STERLING*   CLEAR     45  27  49 NW6       30.27R
DANVILLE*      CLEAR     46  23  39 NW3       30.27S
RICHMOND*      PTCLDY    46  21  36 SW5       30.26S
LEXINGTON      CLEAR     46  23  40 NW6       30.26R
FRANKFORT      CLEAR     47  22  37 W3        30.25S
$$

KYZ091>093-OHZ055-061-077-WVZ005-015-034-035-042-070000
...SOUTHERN OHIO/WEST VIRGINIA...

CITY           SKY/WX    TMP DP  RH WIND       PRES   REMARKS
COVINGTON      PTCLDY    43  22  43 W7        30.24S
COLUMBUS       PTCLDY    39  15  37 SW6       30.24S WCI  35
DAYTON         CLEAR     35  23  61 W8        30.24S WCI  29
WILMINGTON     CLEAR     39  22  50 W6        30.24S WCI  35
HUNTINGTON       N/A     46  21  37 W5        30.24S
CHARLESTON     MOCLDY    46  18  32 W5        30.24R
PINEVILLE*       N/A     38  22  52 MISG      30.29R
BECKLEY          N/A     38  15  39 W3        30.21R
$$

VAZ002-007-008-TNZ017-027-036-066-071-070000
...SOUTHWEST VIRGINIA/EAST TENNESSEE...

CITY           SKY/WX    TMP DP  RH WIND       PRES   REMARKS
BRISTOL        CLOUDY    40  19  43 S5        30.28S
KNOXVILLE      CLOUDY    44  20  38 N7        30.28F
OAK RIDGE      CLOUDY    45  20  36 CALM      30.30F
CROSSVILLE     CLOUDY    42  17  36 S3        30.27F
NASHVILLE      MOCLDY    50  16  25 CALM      30.29F
$$

...KEY TO REMARKS...
VSB - VISIBILITY IN MILES
WCI - WIND CHILL INDEX
HX  - HEAT INDEX

$$



USA.gov is the U.S. government's official web portal to all federal, state and local government web resources and services.